TimePDT,TemperatureF,Dew PointF,Humidity,Sea Level PressureIn,VisibilityMPH,Wind Direction,Wind SpeedMPH,Gust SpeedMPH,PrecipitationIn,Events,Conditions,WindDirDegrees,DateUTC
12:56 AM,39.9,34.0,79,30.21,10.0,SSW,9.2,-,N/A,,Overcast,200,2013-03-21 07:56:00
1:56 AM,39.0,34.0,82,30.22,10.0,South,10.4,-,N/A,,Mostly Cloudy,190,2013-03-21 08:56:00
2:56 AM,39.0,35.1,86,30.23,10.0,South,10.4,-,N/A,,Scattered Clouds,190,2013-03-21 09:56:00
3:56 AM,37.9,35.1,89,30.24,10.0,South,9.2,-,N/A,,Mostly Cloudy,180,2013-03-21 10:56:00
4:56 AM,37.9,35.1,89,30.25,10.0,South,6.9,-,N/A,,Overcast,180,2013-03-21 11:56:00
5:56 AM,37.0,34.0,89,30.24,10.0,South,8.1,-,N/A,,Scattered Clouds,180,2013-03-21 12:56:00
6:56 AM,37.9,35.1,89,30.25,10.0,SSW,4.6,-,N/A,,Mostly Cloudy,200,2013-03-21 13:56:00
7:56 AM,36.0,35.1,97,30.26,10.0,SE,5.8,-,N/A,,Mostly Cloudy,130,2013-03-21 14:56:00
8:56 AM,39.0,36.0,89,30.27,10.0,South,3.5,-,N/A,,Mostly Cloudy,170,2013-03-21 15:56:00
9:56 AM,41.0,37.0,86,30.29,10.0,South,9.2,-,N/A,,Overcast,190,2013-03-21 16:56:00
10:56 AM,43.0,37.0,80,30.30,10.0,South,9.2,-,N/A,,Overcast,180,2013-03-21 17:56:00
11:56 AM,46.0,36.0,68,30.30,10.0,SSW,9.2,-,N/A,,Mostly Cloudy,210,2013-03-21 18:56:00
12:56 PM,43.0,37.0,80,30.30,10.0,Variable,4.6,-,0.03,,Mostly Cloudy,0,2013-03-21 19:56:00
1:56 PM,48.0,36.0,63,30.28,10.0,West,12.7,-,N/A,,Partly Cloudy,270,2013-03-21 20:56:00
2:56 PM,48.9,35.1,59,30.27,10.0,Variable,3.5,16.1,N/A,,Overcast,0,2013-03-21 21:56:00
3:56 PM,46.9,34.0,61,30.27,10.0,West,12.7,-,0.00,,Mostly Cloudy,280,2013-03-21 22:56:00
4:56 PM,46.9,30.9,54,30.27,10.0,West,16.1,23.0,N/A,,Mostly Cloudy,270,2013-03-21 23:56:00
5:56 PM,46.0,33.1,61,30.29,10.0,West,19.6,26.5,N/A,,Mostly Cloudy,280,2013-03-22 00:56:00
6:14 PM,42.8,35.6,76,30.29,10.0,WNW,15.0,20.7,0.00,Rain,Light Rain,290,2013-03-22 01:14:00
6:56 PM,44.1,32.0,63,30.30,10.0,West,8.1,-,0.00,,Overcast,280,2013-03-22 01:56:00
7:56 PM,41.0,33.1,73,30.31,10.0,West,5.8,-,N/A,,Partly Cloudy,260,2013-03-22 02:56:00
8:56 PM,39.9,32.0,73,30.31,10.0,West,6.9,-,N/A,,Partly Cloudy,280,2013-03-22 03:56:00
9:56 PM,39.0,33.1,79,30.32,10.0,SW,3.5,-,0.00,,Partly Cloudy,230,2013-03-22 04:56:00
10:56 PM,37.9,33.1,83,30.32,10.0,West,8.1,-,N/A,,Mostly Cloudy,260,2013-03-22 05:56:00
11:56 PM,36.0,34.0,93,30.33,10.0,SSE,4.6,-,N/A,,Overcast,150,2013-03-22 06:56:00